Tracking 20626 objects as of 10-Apr-2020
HD Live streaming from Space Station
objects crossing your sky now

TITAN 34B AGENA D R/B

Track TITAN 34B AGENA D R/B now!


NORAD ID: 14238
Int'l Code: 1983-078B
Perigee: 655.2 km
Apogee: 31,985.2 km
Inclination: 63.0 °
Period: 567.0 minutes
Semi major axis: 22691 km
RCS: Unknown
Launch date: July 31, 1983
Source: United States (US)
Launch site: AIR FORCE WESTERN TEST RANGE (AFWTR)

Note: This is a ROCKET BODY
aabbcc
Your satellite tracking list
Your tracking list is empty




NASA's NSSDC Master Catalog

Two Line Element Set (TLE):
1 14238U 83078B   20099.58817001  .00000233  00000-0  10787-2 0  9997
2 14238  63.0030 196.1138 6903563 272.0911  16.9955  2.53990436  5354
Source of the keplerian elements: AFSPC